GW1367 Weather Reports


time (UTC)temp
F
wind
direction
speed
knots
gust
knots
rain 1hr
in
rain 24hr
in
rain mn
in
humidity
%
barometer
mb
20260510081705 68 93 0.0 0.0 0.00 0.01 0.01 99 1065.0
20260510081205 68 93 0.0 0.0 0.00 0.01 0.01 99 1065.0
20260510080705 68 93 0.0 0.0 0.00 0.01 0.01 99 1065.0
20260510075705 68 93 0.0 0.0 0.00 0.01 0.01 99 1065.0
20260510075205 68 93 0.0 0.0 0.00 0.01 0.01 99 1065.0
20260510074706 69 93 0.0 0.0 0.00 0.01 0.01 99 1065.0
20260510074205 69 93 0.0 0.0 0.00 0.01 0.01 99 1064.9
20260510072705 69 93 0.0 0.0 0.00 0.01 0.01 100 1064.8
20260510072205 69 93 0.0 0.0 0.00 0.01 0.01 100 1064.9
20260510071705 69 93 0.0 0.0 0.00 0.01 0.01 100 1064.9
20260510071205 69 93 0.0 0.0 0.00 0.01 0.01 100 1065.1
20260510070705 69 93 0.0 0.0 0.00 0.01 0.01 99 1065.2
20260510070205 69 93 0.0 0.0 0.00 0.01 0.01 99 1065.3
20260510065705 69 93 0.0 0.0 0.00 0.01 0.01 99 1065.4
20260510065205 69 93 0.0 0.0 0.00 0.01 0.01 99 1065.3
20260510064205 69 93 0.0 0.0 0.00 0.01 0.01 99 1065.4
20260510063205 69 93 0.0 0.0 0.00 0.01 0.01 99 1065.3
20260510062705 69 93 0.0 0.0 0.00 0.01 0.01 99 1065.3
20260510062205 69 93 0.0 0.0 0.00 0.01 0.01 99 1065.4
20260510061705 69 93 0.0 0.9 0.00 0.01 0.01 99 1065.3
20260510061205 69 98 0.0 1.7 0.00 0.01 0.01 99 1065.2
20260510060706 69 206 0.0 0.0 0.00 0.01 0.01 99 1065.2
20260510060205 69 206 0.0 0.0 0.00 0.01 0.01 99 1065.2
20260510055705 69 206 0.0 0.0 0.00 0.01 0.01 99 1065.2
20260510055205 69 206 0.0 0.0 0.00 0.01 0.01 99 1065.2
20260510054705 69 206 0.0 0.0 0.00 0.01 0.01 99 1065.3
20260510053705 69 206 0.0 0.0 0.00 0.01 0.01 99 1065.3
20260510053205 69 148 0.0 0.9 0.00 0.01 0.01 99 1065.3
20260510052705 69 82 0.0 0.0 0.00 0.01 0.01 99 1065.3
20260510052205 69 82 0.0 0.9 0.00 0.01 0.01 99 1065.4
20260510051705 69 87 0.0 0.0 0.00 0.01 0.01 99 1065.4
20260510051204 69 87 0.0 0.9 0.00 0.01 0.01 99 1065.5
20260510050705 69 84 0.0 0.0 0.00 0.01 0.01 99 1065.5
20260510045704 69 92 0.0 0.0 0.00 0.01 0.01 99 1065.7
20260510045205 69 92 0.0 0.0 0.00 0.01 0.01 99 1065.8
20260510044204 69 94 0.0 0.0 0.00 0.01 0.01 99 1065.8
20260510043705 69 94 0.0 0.0 0.00 0.01 0.01 99 1065.8
20260510043205 69 94 0.0 0.0 0.00 0.01 0.01 99 1065.9
20260510042705 69 94 0.0 0.0 0.00 0.01 0.01 99 1065.9
20260510042205 69 94 0.0 0.0 0.00 0.01 0.01 99 1065.8
20260510041705 69 94 0.0 0.0 0.00 0.01 0.01 99 1065.7
20260510041205 69 94 0.0 0.0 0.00 0.01 0.01 99 1065.7
20260510040706 69 94 0.0 1.7 0.00 0.01 0.01 99 1065.6
20260510040205 69 114 0.0 1.7 0.00 0.01 0.01 99 1065.6
20260510035705 69 87 0.0 0.9 0.00 0.01 0.01 99 1065.6
20260510033205 69 79 0.0 0.9 0.00 0.01 0.01 100 1064.1
20260510032705 69 81 0.9 0.9 0.00 0.01 0.01 100 1063.8
20260510032206 69 76 0.0 0.0 0.00 0.01 0.01 100 1063.4
20260510031705 69 76 0.0 0.0 0.00 0.01 0.01 99 1063.1
20260510031205 69 76 0.0 0.0 0.00 0.01 0.01 99 1063.2
20260510030705 69 76 0.0 0.0 0.00 0.01 0.01 99 1063.1
20260510025706 69 76 0.9 1.7 0.00 0.01 0.01 99 1063.1
20260510024705 69 319 0.0 0.0 0.00 0.01 0.01 100 1063.9
20260510024205 69 325 0.0 1.7 0.00 0.01 0.01 100 1064.2
20260510023705 69 97 0.0 0.9 0.00 0.01 0.01 99 1064.4
20260510023205 69 121 0.9 0.9 0.00 0.01 0.01 100 1064.6
20260510022705 69 320 0.0 0.0 0.00 0.01 0.01 100 1065.3
20260510022205 69 320 0.0 0.9 0.00 0.01 0.01 100 1065.8
20260510021705 69 98 0.9 1.7 0.00 0.01 0.01 99 1066.0
20260510021205 68 14 0.0 0.9 0.00 0.01 0.01 99 1065.3
20260510020705 68 103 0.9 1.7 0.00 0.01 0.01 99 1065.1
20260510015705 68 77 0.0 1.7 0.00 0.01 0.01 99 1065.0
20260510015206 68 79 0.9 2.6 0.00 0.01 0.01 99 1064.6
20260510014705 68 80 0.9 1.7 0.00 0.01 0.01 99 1064.3
20260510013705 68 88 0.0 2.6 0.00 0.01 0.01 100 1063.9
20260510013205 68 118 0.9 1.7 0.00 0.01 0.01 100 1063.7
20260510012705 68 84 0.0 1.7 0.00 0.01 0.01 100 1064.0
20260510012205 68 121 0.9 1.7 0.00 0.01 0.01 100 1064.0
20260510011705 68 93 0.0 0.0 0.00 0.01 0.01 100 1064.2
20260510011205 68 93 0.0 0.0 0.00 0.01 0.01 100 1064.3
20260510010704 68 90 0.0 0.9 0.00 0.01 0.01 100 1064.3
20260510010205 68 88 0.0 0.9 0.00 0.01 0.01 100 1064.5
20260510005705 68 277 0.0 0.0 0.00 0.01 0.01 100 1064.6
20260510005205 68 277 0.0 0.0 0.00 0.01 0.01 100 1064.5
20260510004204 68 277 0.0 0.0 0.00 0.01 0.01 100 1064.4
20260510003705 68 277 0.0 0.0 0.00 0.01 0.01 100 1064.3
20260510003205 68 277 0.0 0.0 0.00 0.01 0.01 100 1064.3
20260510002705 68 277 0.0 0.0 0.00 0.01 0.01 100 1064.3
20260510001704 68 277 0.0 1.7 0.00 0.01 0.01 100 1064.1
20260510001205 68 257 0.9 2.6 0.00 0.01 0.01 100 1063.6
20260510000204 68 89 0.0 0.0 0.00 0.01 0.01 100 1063.3
20260509235705 68 89 0.0 0.0 0.00 0.01 0.01 100 1063.3
20260509235205 68 89 0.0 0.9 0.00 0.01 0.01 100 1063.5
20260509234705 68 96 0.9 1.7 0.00 0.01 0.01 100 1063.5
20260509234204 68 125 0.0 0.0 0.00 0.01 0.01 100 1063.8
20260509233205 68 44 0.0 0.9 0.00 0.01 0.01 100 1062.8
20260509232705 68 100 0.9 2.6 0.00 0.01 0.01 100 1062.6
20260509232205 68 108 0.0 1.7 0.00 0.01 0.01 100 1062.5
20260509231704 68 94 1.7 2.6 0.00 0.01 0.01 100 1062.4
20260509231205 68 127 0.9 2.6 0.00 0.01 0.01 100 1062.5
20260509230706 68 86 0.9 1.7 0.00 0.01 0.01 100 1063.0
20260509230205 68 110 1.7 1.7 0.00 0.01 0.01 100 1063.3
20260509225704 68 105 0.9 2.6 0.00 0.01 0.01 99 1063.6
20260509225205 68 123 0.9 1.7 0.00 0.01 0.01 99 1063.7
20260509224705 68 87 0.0 5.2 0.00 0.01 0.01 99 1063.2
20260509224205 68 296 0.0 2.6 0.00 0.01 0.01 100 1062.6
20260509223705 68 79 1.7 2.6 0.00 0.01 0.01 100 1062.2
20260509223205 68 43 1.7 2.6 0.00 0.01 0.01 100 1062.6
20260509222705 68 133 0.9 2.6 0.00 0.01 0.01 100 1063.1
20260509222205 68 87 0.9 1.7 0.00 0.01 0.01 100 1063.1
20260509221705 68 80 0.9 1.7 0.00 0.01 0.01 100 1063.0
20260509221205 68 89 0.9 1.7 0.00 0.01 0.01 100 1062.9
20260509220705 68 84 0.0 0.0 0.00 0.01 0.01 100 1062.8
20260509220204 68 84 0.0 0.9 0.00 0.01 0.01 99 1062.9
20260509215705 68 143 0.0 0.9 0.00 0.01 0.01 100 1063.0
20260509215204 68 99 0.9 0.9 0.00 0.01 0.01 100 1062.9
20260509214705 68 89 0.9 0.9 0.00 0.01 0.01 100 1062.9
20260509214204 68 90 0.9 1.7 0.00 0.01 0.01 100 1063.1
20260509213705 68 95 0.0 0.0 0.00 0.01 0.01 100 1063.3
20260509213204 68 104 0.0 0.9 0.00 0.01 0.01 100 1063.4
20260509212705 68 86 0.0 0.0 0.00 0.01 0.01 100 1063.6
20260509212204 68 86 0.0 1.7 0.00 0.01 0.01 100 1063.6
20260509211706 68 86 0.9 1.7 0.00 0.01 0.01 100 1063.4
20260509211204 68 73 0.9 1.7 0.00 0.01 0.01 100 1063.2
20260509210705 68 356 0.0 0.9 0.00 0.01 0.01 100 1063.0
20260509210204 68 333 0.0 1.7 0.00 0.01 0.01 100 1063.0
20260509205705 68 79 0.9 1.7 0.00 0.01 0.01 100 1063.3
20260509205204 68 91 0.0 1.7 0.00 0.01 0.01 100 1063.4
20260509204705 68 51 0.9 1.7 0.00 0.01 0.01 100 1063.0
20260509204204 68 75 0.9 0.9 0.00 0.01 0.01 100 1062.9
20260509202704 68 238 0.0 0.9 0.00 0.01 0.01 100 1063.3
20260509202204 68 230 0.0 1.7 0.00 0.01 0.01 100 1063.0
20260509201704 68 104 1.7 2.6 0.00 0.01 0.01 100 1062.9
20260509201204 68 100 0.9 1.7 0.00 0.01 0.01 100 1062.9
20260509200704 69 101 1.7 1.7 0.00 0.01 0.01 100 1063.4
20260509200205 69 133 1.7 2.6 0.00 0.01 0.01 100 1063.4
20260509195705 69 112 1.7 2.6 0.00 0.01 0.01 100 1063.5
20260509195205 69 105 0.9 1.7 0.00 0.01 0.01 100 1063.9
20260509194704 69 42 0.9 4.3 0.00 0.01 0.01 100 1063.8
20260509193204 69 332 0.9 4.3 0.00 0.01 0.01 100 1064.2
20260509192704 69 78 0.9 1.7 0.00 0.01 0.01 100 1064.5
20260509192205 69 95 1.7 5.2 0.00 0.01 0.01 100 1064.4
20260509191704 69 66 1.7 2.6 0.00 0.01 0.01 99 1064.6
20260509190705 69 102 2.6 5.2 0.00 0.01 0.01 100 1064.0
20260509190204 69 299 0.9 1.7 0.00 0.01 0.01 100 1064.8
20260509185704 69 93 0.0 1.7 0.00 0.01 0.01 100 1064.5
20260509185204 69 78 0.9 2.6 0.00 0.01 0.01 100 1064.5
20260509184704 70 114 0.9 1.7 0.00 0.01 0.01 100 1064.4
20260509184205 70 101 0.0 0.0 0.00 0.01 0.01 100 1064.9
20260509183704 70 101 0.9 2.6 0.00 0.01 0.01 100 1065.0
20260509183205 70 117 0.0 1.7 0.00 0.01 0.01 100 1064.9
20260509182706 70 119 0.0 0.0 0.00 0.01 0.01 100 1065.2
20260509181707 70 120 0.9 2.6 0.00 0.01 0.01 100 1065.0
20260509181206 69 88 0.0 0.9 0.00 0.01 0.01 100 1064.8
20260509180706 69 99 0.0 1.7 0.00 0.01 0.01 100 1064.7
20260509180206 69 123 0.9 1.7 0.00 0.01 0.01 100 1064.6
20260509175706 69 95 0.0 1.7 0.00 0.01 0.01 100 1064.9
20260509175207 69 109 0.0 0.9 0.00 0.01 0.01 100 1065.0
20260509174706 69 94 0.0 0.9 0.00 0.01 0.01 100 1065.0
20260509174206 69 94 0.0 0.9 0.00 0.01 0.01 100 1065.1
20260509173706 69 314 0.0 0.0 0.00 0.01 0.01 100 1065.1
20260509172706 69 73 0.9 2.6 0.00 0.01 0.01 100 1065.3
20260509172206 69 91 0.0 0.9 0.00 0.01 0.01 100 1065.0
20260509171707 69 92 0.0 0.9 0.00 0.01 0.01 100 1065.0
20260509171206 69 107 1.7 2.6 0.00 0.01 0.01 100 1065.3
20260509170706 69 73 0.9 2.6 0.00 0.01 0.01 100 1065.3
20260509170206 69 97 0.9 1.7 0.00 0.01 0.01 100 1065.1
20260509165706 69 5 0.0 0.9 0.00 0.01 0.01 100 1065.3
20260509165206 69 18 0.0 0.0 0.00 0.01 0.01 100 1065.5
20260509164706 69 18 0.0 1.7 0.00 0.01 0.01 100 1065.3
20260509164206 69 91 0.9 2.6 0.00 0.01 0.01 100 1065.3
20260509163706 69 95 0.9 1.7 0.00 0.01 0.01 100 1065.3
20260509163206 69 76 0.9 1.7 0.00 0.01 0.01 100 1065.3
20260509162707 68 266 0.9 1.7 0.00 0.01 0.01 100 1065.4
20260509162206 68 79 0.9 1.7 0.00 0.01 0.01 100 1065.3
20260509161707 68 20 1.7 1.7 0.00 0.01 0.01 100 1065.3
20260509161206 68 120 1.7 1.7 0.00 0.01 0.01 99 1065.3
20260509160706 68 195 1.7 1.7 0.00 0.01 0.01 99 1065.2
20260509160206 68 341 0.9 1.7 0.00 0.01 0.01 100 1065.1
20260509155706 68 52 0.9 1.7 0.00 0.01 0.01 100 1065.2
20260509155206 68 260 1.7 2.6 0.00 0.01 0.01 99 1065.4
20260509154706 68 125 1.7 2.6 0.00 0.01 0.01 100 1065.6
20260509154206 68 79 1.7 1.7 0.00 0.01 0.01 100 1065.4
20260509153706 68 33 1.7 1.7 0.00 0.01 0.01 100 1065.2
20260509153207 68 82 0.9 1.7 0.00 0.01 0.01 100 1065.3
20260509152706 68 271 0.9 1.7 0.00 0.01 0.01 100 1065.2
20260509152206 68 257 0.9 1.7 0.00 0.01 0.01 100 1065.4
20260509151707 68 255 1.7 1.7 0.00 0.01 0.01 99 1065.6
20260509150705 68 351 1.7 1.7 0.00 0.01 0.01 100 1065.5
20260509150207 68 240 1.7 1.7 0.00 0.01 0.01 100 1065.2
20260509145706 68 246 1.7 1.7 0.00 0.01 0.01 100 1064.8
20260509145206 68 237 1.7 1.7 0.00 0.01 0.01 100 1064.8
20260509143706 67 85 1.7 1.7 0.00 0.01 0.01 100 1064.5
20260509143206 67 234 0.9 1.7 0.00 0.01 0.01 100 1064.4
20260509142706 67 65 0.9 1.7 0.00 0.01 0.01 100 1064.3
20260509141706 67 75 0.9 1.7 0.00 0.01 0.01 100 1064.4
20260509141205 67 99 0.9 1.7 0.00 0.01 0.01 100 1064.3
20260509140706 67 174 0.9 1.7 0.00 0.01 0.01 100 1064.2
20260509140206 67 86 0.9 1.7 0.00 0.01 0.01 100 1064.2
20260509135706 67 95 0.9 1.7 0.00 0.01 0.01 100 1063.9
20260509135206 67 161 0.0 0.0 0.00 0.01 0.01 100 1063.9
20260509134706 67 161 0.0 0.0 0.00 0.01 0.01 100 1063.8
20260509133707 67 161 0.0 0.0 0.00 0.01 0.01 100 1064.0
20260509133206 67 161 0.9 1.7 0.00 0.01 0.01 100 1064.0
20260509132707 67 101 0.0 0.9 0.00 0.01 0.01 100 1064.2
20260509131706 67 216 0.9 2.6 0.00 0.01 0.01 100 1064.2
20260509131206 67 60 2.6 4.3 0.00 0.01 0.01 99 1063.9
20260509124706 67 158 0.9 1.7 0.00 0.01 0.01 99 1062.6
20260509124206 67 98 0.9 1.7 0.00 0.01 0.01 99 1062.5
20260509123706 67 86 0.9 2.6 0.00 0.01 0.01 99 1062.3
20260509122706 67 277 0.0 1.7 0.00 0.01 0.01 99 1062.2
20260509122206 67 303 2.6 2.6 0.00 0.01 0.01 99 1061.7
20260509121706 67 215 0.9 2.6 0.00 0.01 0.01 99 1061.0
20260509121206 67 57 1.7 2.6 0.00 0.01 0.01 99 1060.9
20260509120706 67 231 0.0 1.7 0.00 0.01 0.01 99 1060.1
20260509120206 67 104 0.9 1.7 0.00 0.01 0.01 98 1059.3
20260509113706 71 180 0.9 2.6 0.00 0.01 0.01 98 1064.4
20260509113206 72 93 0.9 1.7 0.00 0.01 0.01 100 1065.4
20260509112206 72 56 0.0 0.0 0.00 0.01 0.01 100 1063.7
20260509111706 72 56 0.0 0.0 0.00 0.01 0.01 100 1063.5
20260509111206 72 56 0.0 0.0 0.00 0.01 0.01 100 1063.3
20260509110705 72 55 0.0 0.9 0.00 0.01 0.01 100 1063.0
20260509105706 72 29 0.0 1.7 0.00 0.01 0.01 100 1062.6
20260509104706 71 93 0.9 1.7 0.00 0.01 0.01 100 1062.6
20260509103705 71 84 0.0 2.6 0.00 0.01 0.01 100 1062.4
20260509103206 71 64 0.0 1.7 0.00 0.01 0.01 100 1062.3
20260509102706 71 51 0.0 0.9 0.00 0.01 0.01 100 1062.7
20260509102206 71 61 0.9 0.9 0.00 0.01 0.01 100 1062.8
20260509101706 71 343 0.0 0.0 0.00 0.01 0.01 100 1063.0
20260509100706 71 331 0.0 0.9 0.00 0.01 0.01 100 1062.5
20260509100206 71 320 0.0 0.0 0.00 0.01 0.01 100 1062.3
20260509095705 71 320 0.0 0.0 0.00 0.01 0.01 100 1062.2
20260509095206 71 320 0.0 0.0 0.00 0.01 0.01 100 1062.2
20260509094706 71 320 0.0 1.7 0.00 0.01 0.01 100 1062.1
20260509093706 71 39 0.0 0.9 0.00 0.01 0.01 99 1061.6
20260509093206 71 65 0.0 1.7 0.00 0.01 0.01 100 1061.7
20260509092206 71 356 0.9 1.7 0.00 0.01 0.01 99 1062.3
20260509091707 71 259 0.9 1.7 0.00 0.01 0.01 99 1062.5
20260509090705 71 60 0.9 1.7 0.00 0.01 0.01 100 1062.9
20260509090206 71 63 0.9 1.7 0.00 0.01 0.01 100 1063.1
20260509085706 71 96 0.9 2.6 0.00 0.01 0.01 100 1063.3
20260509085206 71 14 0.9 1.7 0.00 0.01 0.01 100 1063.5
20260509084705 71 55 0.9 1.7 0.00 0.01 0.01 100 1063.6
20260509083706 71 270 0.9 1.7 0.00 0.01 0.01 100 1063.9
20260509082705 71 77 0.9 1.7 0.00 0.01 0.01 100 1064.2
20260509082205 71 55 0.9 1.7 0.00 0.01 0.01 100 1064.5